Location: Kearney
(40.6990°N, 99.0810°W)
Time: 02:31:38
(UTC-06:00)

Daily predictions for brighter satellites

Satellite Brightness Start Highest point End
(mag) Time Altitude Azimuth Time Altitude Azimuth Time Altitude Azimuth
NOSS 3-1 (C) 4.4 04:39:11 57° NNE 04:39:59 59° NE 04:48:11 10° SE
Cosmos 2233 Rocket 4.4 04:53:16 59° ENE 04:53:16 59° ENE 04:58:49 10° NNE
SL-16 R/B 4.4 05:01:28 15° SSE 05:01:28 15° SSE 05:02:19 10° SSE
SeaSat 1 3.7 05:06:14 10° NNE 05:09:00 34° NNE 05:09:00 34° NNE
SL-8 R/B 4.5 05:17:14 49° E 05:17:14 49° E 05:20:51 10° ESE
Cosmos 2221 4.1 05:12:54 10° SSE 05:16:47 33° E 05:20:40 10° NNE
DELTA 2 R/B (1) 3.8 05:18:45 61° SE 05:18:45 61° SE 05:23:53 10° E
Meteor 1-16 Rocket 4.0 05:27:37 62° S 05:28:34 85° E 05:33:54 10° N
Cosmos 1943 4.3 05:30:43 16° N 05:34:56 41° ENE 05:40:17 10° SE
Meteor 1-11 4.1 05:41:07 17° NNW 05:45:40 82° W 05:51:27 10° S
Gbstr 26 Del rocket 4.2 05:43:30 27° SSW 05:46:09 54° SE 05:52:19 10° ENE
Cosmos 773 Rocket 3.9 05:45:20 60° NW 05:46:13 75° WSW 05:51:29 10° S
Thor Agena Rocket 4.4 05:45:10 10° S 05:48:32 35° SW 05:48:32 35° SW
Cosmos 1464 Rocket 4.1 05:44:11 10° S 05:50:29 80° E 05:56:46 10° N
Cosmos 2263 Rocket 3.3 05:47:21 10° S 05:52:42 44° ESE 05:58:04 10° NE
NOSS 3-1 (A) 4.0 05:48:36 31° NW 05:52:48 74° WSW 06:01:11 10° SSE
Cosmos 1340 Rocket 3.6 05:57:16 39° SSW 05:57:16 39° SSW 05:59:54 10° S
Coronas F rocket 3.7 05:56:55 19° ENE 05:57:10 19° ENE 05:59:00 10° SE
Cosmos 389 Rocket 4.2 05:56:36 10° SSE 05:59:59 36° E 06:03:22 10° NNE
Cosmos 2112 Rocket 4.4 05:55:43 13° NNW 06:00:33 66° ENE 06:05:52 10° SSE
Feng Yun 1-1 Rocket 4.5 05:55:23 10° N 06:00:33 44° WNW 06:01:00 43° W
ATLAS 2AS CENTAUR R/B 3.8 05:53:45 11° NNW 06:01:15 48° NE 06:08:33 10° ESE
Cosmos 1603 3.7 05:59:36 41° NW 06:01:19 57° WSW 06:06:51 10° S
ATLAS 3B CENTAUR R/B 4.5 06:00:27 10° SSW 06:05:21 26° SE 06:15:33 10° E
COSMO-SKYMED 1 2.5 06:04:50 10° S 06:09:07 62° W 06:11:07 30° NNW
CSL-04 Rocket 4.1 06:04:54 10° NNE 06:10:08 60° ESE 06:15:20 10° S
Cosmos 1805 Rocket 3.4 06:07:26 11° N 06:11:38 81° W 06:15:59 10° S
CZ-2C R/B 4.4 06:07:46 10° NE 06:11:44 28° E 06:15:40 10° SSE
NOAA 6 4.1 06:06:42 10° N 06:11:44 51° WNW 06:16:44 10° SW
Cosmos 1908 4.1 06:08:57 10° S 06:12:39 50° E 06:16:23 10° NNE
Cosmos 1072 Rocket 4.4 06:06:45 10° SSW 06:12:49 63° W 06:18:53 10° N
Cosmos 2058 3.4 06:14:29 39° WSW 06:14:29 39° WSW 06:17:51 10° SSW
GPS 2-05 Rocket1 4.2 06:15:05 24° SSW 06:15:15 24° SSW 06:17:56 10° SE
USA 234 4.4 06:11:51 10° E 06:17:38 35° NNE 06:22:52 12° NW
APEX 3.4 06:16:51 10° SSW 06:20:36 59° ESE 06:23:41 10° NNE
Meteor 2-1 Rocket 4.3 06:16:52 10° SSW 06:22:21 52° WNW 06:28:00 10° N
Sich 1 2.9 06:21:18 10° N 06:25:40 89° W 06:29:57 10° S
Cosmos 292 Rocket 4.1 06:28:32 21° NW 06:31:18 43° WSW 06:35:51 10° S
Tiangong 2 1.0 06:31:09 41° W 06:32:05 74° NNW 06:35:13 10° ENE
Cosmos 2228 Rocket 3.4 06:29:00 10° S 06:33:23 69° E 06:37:46 10° NNE
PSLV R/B 3.2 06:32:31 35° W 06:33:50 89° NNE 06:37:13 10° E
Cosmos 1356 Rocket 3.7 06:31:15 15° NNW 06:34:20 44° W 06:38:19 10° SSW
Cosmos 1633 Rocket 2.9 06:30:55 10° N 06:35:17 80° W 06:39:37 10° S
Cosmos 1328 Rocket 3.8 06:32:33 10° S 06:36:52 71° E 06:41:14 10° NNE
Cosmos 1626 2.4 06:34:22 14° NNW 06:37:19 45° W 06:40:53 10° SSW
SMAP 4.2 06:34:13 10° NNE 06:38:44 47° E 06:43:11 10° S
YAOGAN 3 4.5 06:34:51 10° N 06:39:14 82° WNW 06:43:35 10° SSW
OPS 8737 4.4 06:39:18 13° SW 06:42:04 51° NW 06:45:10 10° NNE
IRS-1A Rocket 4.5 06:40:04 10° NNE 06:45:59 84° ESE 06:51:45 10° SSW
Helios 1B rocket 3.9 06:42:42 10° SE 06:46:31 39° ENE 06:50:21 10° N
SeaSat 1 3.9 06:45:09 10° N 06:48:07 16° NW 06:48:49 16° WNW
Meteor 1-28 Rocket 4.0 06:45:58 10° SSW 06:49:14 29° W 06:52:08 12° NW
Cosmos 1515 Rocket 3.9 06:44:56 10° S 06:49:19 72° E 06:53:46 10° NNE
Ariane Rocket 3.3 06:47:31 10° N 06:52:21 45° WNW 06:57:11 10° SW
Cosmos 858 Rocket 4.5 06:48:32 10° SSW 06:53:43 90° ESE 06:58:57 10° NNE
Cosmos 2221 3.8 06:51:19 10° WSW 06:54:26 19° WNW 06:57:34 10° NNW
YAOGAN 1 2.9 06:56:31 10° NNE 07:00:51 70° ESE 07:05:09 10° S
Cosmos 990 Rocket 4.4 06:55:45 10° S 07:00:52 67° ESE 07:06:03 10° NNE
AQUARIUS 4.3 06:56:53 10° NNE 07:01:24 84° ESE 07:05:54 10° SSW
CZ-4 R/B 1.3 06:57:20 10° N 07:01:26 75° WNW 07:05:34 10° SSW
SJ-12 3.8 07:00:31 10° N 07:04:33 67° WNW 07:08:35 10° SSW
Nadezhda 4 Rocket 4.2 06:58:27 10° NNW 07:04:34 53° W 07:10:36 10° SSW
DELTA 2 R/B (1) 3.6 06:59:32 12° W 07:04:45 81° S 07:10:19 10° E
Cosmos 192 4.3 07:00:53 10° NNW 07:05:50 72° WSW 07:10:45 10° S
Cosmos 1680 Rocket 4.5 07:01:34 10° NW 07:05:59 27° W 07:10:22 10° SSW
Cosmos 1898 Rocket 3.5 07:02:04 10° SSW 07:07:16 61° WNW 07:12:32 10° NNE
Cosmos 2026 Rocket 4.4 07:02:01 10° N 07:08:04 68° E 07:14:07 10° SSE
DELTA 2 R/B(2) 4.3 07:09:30 10° WSW 07:11:20 46° SSE 07:14:11 10° E
Meteor 2-2 Rocket 4.3 07:07:01 10° SSW 07:12:49 73° W 07:18:33 10° N
PAYLOAD A 4.2 07:08:45 10° N 07:13:27 44° WNW 07:17:58 10° SW
IDEFIX/ARIANE 42P 2.6 07:09:32 10° N 07:14:47 67° WNW 07:19:59 10° SSW
CORIOLIS 4.3 07:10:24 10° NNE 07:15:51 88° ESE 07:21:18 10° SSW
Cosmos 1943 4.1 07:14:00 10° NW 07:18:46 28° WSW 07:23:29 10° SSW
Cosmos 2150 Rocket 4.2 07:16:24 10° SW 07:21:43 55° WNW 07:26:59 10° N
Cosmos 1933 Rocket 3.7 07:18:16 10° NNW 07:22:36 53° W 07:26:52 10° S
Cosmos 1092 Rocket 4.2 07:20:26 10° NNW 07:26:26 49° W 07:32:20 10° SSW
